ON3FV Weather Reports


time (UTC)temp
C
wind
direction
speed
KPH
gust
KPH
rain 1hr
cm
rain 24hr
cm
rain mn
cm
humidity
%
barometer
mb
20260507123626 15 0.0 0.0 0.00 0.00 0.00 73 1015.2
20260507123146 15 0.0 0.0 0.00 0.00 0.00 72 1015.2
20260507122624 15 0.0 0.0 0.00 0.00 0.00 72 1015.2
20260507122124 15 0.0 0.0 0.00 0.00 0.00 74 1015.1
20260507121642 15 0.0 0.0 0.00 0.00 0.00 74 1015.1
20260507121121 15 0.0 0.0 0.00 0.00 0.00 72 1015.2
20260507120621 15 0.0 0.0 0.00 0.00 0.00 72 1015.2
20260507120121 15 0.0 0.0 0.00 0.00 0.00 74 1015.1
20260507115618 15 0.0 0.0 0.00 0.00 0.00 74 1015.1
20260507115118 15 0.0 0.0 0.00 0.00 0.00 73 1015.1
20260507114616 15 0.0 0.0 0.00 0.00 0.00 73 1015.1
20260507114115 15 0.0 0.0 0.00 0.00 0.00 73 1015.2
20260507113615 15 0.0 0.0 0.00 0.00 0.00 73 1015.2
20260507113153 15 0.0 0.0 0.00 0.00 0.00 74 1015.2
20260507112613 15 0.0 0.0 0.00 0.00 0.00 74 1015.2
20260507112112 15 0.0 0.0 0.00 0.00 0.00 75 1015.3
20260507111611 15 0.0 0.0 0.00 0.00 0.00 75 1015.3
20260507111109 14 0.0 0.0 0.00 0.00 0.00 75 1015.4
20260507110609 14 0.0 0.0 0.00 0.00 0.00 75 1015.4
20260507110108 14 0.0 0.0 0.00 0.00 0.00 77 1015.4
20260507105606 14 0.0 0.0 0.00 0.00 0.00 77 1015.4
20260507105105 14 0.0 0.0 0.00 0.00 0.00 76 1015.5
20260507104605 14 0.0 0.0 0.00 0.00 0.00 76 1015.5
20260507104103 13 0.0 0.0 0.00 0.00 0.00 80 1015.6
20260507103603 13 0.0 0.0 0.00 0.00 0.00 80 1015.6
20260507103141 13 0.0 0.0 0.00 0.00 0.00 79 1015.6
20260507102600 13 0.0 0.0 0.00 0.00 0.00 79 1015.6
20260507102059 13 0.0 0.0 0.00 0.00 0.00 79 1015.4
20260507101619 13 0.0 0.0 0.00 0.00 0.00 79 1015.4
20260507101058 13 0.0 0.0 0.00 0.00 0.00 79 1015.4
20260507100557 13 0.0 0.0 0.00 0.00 0.00 79 1015.4
20260507100055 12 0.0 0.0 0.00 0.00 0.00 81 1015.4
20260507095554 12 0.0 0.0 0.00 0.00 0.00 81 1015.4
20260507095054 12 0.0 0.0 0.00 0.00 0.00 82 1015.3
20260507094552 12 0.0 0.0 0.00 0.00 0.00 82 1015.3
20260507094051 12 0.0 0.0 0.00 0.00 0.00 82 1015.3
20260507093550 12 0.0 0.0 0.00 0.00 0.00 82 1015.3
20260507093050 12 0.0 0.0 0.00 0.00 0.00 82 1015.3
20260507092548 12 0.0 0.0 0.00 0.00 0.00 82 1015.3
20260507092048 12 0.0 0.0 0.00 0.00 0.00 84 1015.2
20260507091547 12 0.0 0.0 0.00 0.00 0.00 84 1015.2
20260507091045 12 0.0 0.0 0.00 0.00 0.00 85 1015.1
20260507090545 12 0.0 0.0 0.00 0.00 0.00 85 1015.1
20260507090043 11 0.0 0.0 0.00 0.00 0.00 86 1015.1
20260507085543 11 0.0 0.0 0.00 0.00 0.00 86 1015.1
20260507085102 11 0.0 0.0 0.00 0.00 0.00 87 1015.1
20260507084541 11 0.0 0.0 0.00 0.00 0.00 87 1015.1
20260507084059 11 0.0 0.0 0.00 0.00 0.00 87 1015.0
20260507083538 11 0.0 0.0 0.00 0.00 0.00 87 1015.0
20260507083038 11 0.0 0.0 0.00 0.00 0.00 88 1015.0
20260507082536 11 0.0 0.0 0.00 0.00 0.00 88 1015.0
20260507082036 11 0.0 0.0 0.00 0.00 0.00 88 1014.9
20260507081534 11 0.0 0.0 0.00 0.00 0.00 88 1014.9
20260507081054 10 0.0 0.0 0.00 0.00 0.00 89 1014.8
20260507080613 10 0.0 0.0 0.00 0.00 0.00 89 1014.8
20260507080032 10 0.0 0.0 0.00 0.00 0.00 89 1014.9
20260507075551 10 0.0 0.0 0.00 0.00 0.00 89 1014.9
20260507075030 10 0.0 0.0 0.00 0.00 0.00 89 1014.8
20260507074529 10 0.0 0.0 0.00 0.00 0.00 89 1014.8
20260507074027 10 0.0 0.0 0.00 0.00 0.00 89 1014.7
20260507073526 10 0.0 0.0 0.00 0.00 0.00 89 1014.7
20260507073026 10 0.0 0.0 0.00 0.00 0.00 89 1014.6
20260507072546 10 0.0 0.0 0.00 0.00 0.00 89 1014.6
20260507072023 9 0.0 0.0 0.00 0.00 0.00 89 1014.6
20260507071523 9 0.0 0.0 0.00 0.00 0.00 89 1014.6
20260507071022 9 0.0 0.0 0.00 0.00 0.00 89 1014.6
20260507070521 9 0.0 0.0 0.00 0.00 0.00 89 1014.6
20260507070040 9 0.0 0.0 0.00 0.00 0.00 89 1014.6
20260507065519 9 0.0 0.0 0.00 0.00 0.00 89 1014.6
20260507065037 9 0.0 0.0 0.00 0.00 0.00 89 1014.5
20260507064517 9 0.0 0.0 0.00 0.00 0.00 89 1014.5
20260507064017 9 0.0 0.0 0.00 0.00 0.00 89 1014.4
20260507063514 9 0.0 0.0 0.00 0.00 0.00 89 1014.4
20260507062553 8 0.0 0.0 0.00 0.00 0.00 89 1014.3
20260507061510 8 0.0 0.0 0.00 0.00 0.00 89 1014.2
20260507060508 8 0.0 0.0 0.00 0.00 0.00 89 1014.1
20260507055506 8 0.0 0.0 0.00 0.00 0.00 89 1014.0
20260507054505 8 0.0 0.0 0.00 0.00 0.00 89 1014.0
20260507053503 8 0.0 0.0 0.00 0.00 0.00 89 1013.8
20260507052501 8 0.0 0.0 0.00 0.00 0.00 89 1013.7
20260507052000 8 0.0 0.0 0.00 0.00 0.00 89 1013.7
20260507051458 8 0.0 0.0 0.00 0.00 0.00 89 1013.6
20260507050957 8 0.0 0.0 0.00 0.00 0.00 89 1013.6
20260507050456 8 0.0 0.0 0.00 0.00 0.00 89 1013.6
20260507050015 8 0.0 0.0 0.00 0.00 0.00 89 1013.6
20260507045455 8 0.0 0.0 0.00 0.00 0.00 89 1013.5
20260507044953 8 0.0 0.0 0.00 0.00 0.00 89 1013.5
20260507044453 8 0.0 0.0 0.00 0.00 0.00 89 1013.5
20260507044033 8 0.0 0.0 0.00 0.00 0.00 89 1013.5
20260507043451 8 0.0 0.0 0.00 0.00 0.00 89 1013.5
20260507042950 8 0.0 0.0 0.00 0.00 0.00 89 1013.5
20260507042508 8 0.0 0.0 0.00 0.00 0.00 89 1013.5
20260507041948 8 0.0 0.0 0.00 0.00 0.00 89 1013.5
20260507041446 8 0.0 0.0 0.00 0.00 0.00 89 1013.4
20260507041006 8 0.0 0.0 0.00 0.00 0.00 89 1013.4
20260507040444 8 0.0 0.0 0.00 0.00 0.00 89 1013.3
20260507040024 8 0.0 0.0 0.00 0.00 0.00 89 1013.3
20260507035442 8 0.0 0.0 0.00 0.00 0.00 89 1013.2
20260507034941 8 0.0 0.0 0.00 0.00 0.00 89 1013.2
20260507034440 7 0.0 0.0 0.00 0.00 0.00 89 1013.1
20260507033939 7 0.0 0.0 0.00 0.00 0.00 89 1013.1
20260507033439 7 0.0 0.0 0.00 0.00 0.00 89 1013.1
20260507032937 7 0.0 0.0 0.00 0.00 0.00 89 1013.1
20260507032437 7 0.0 0.0 0.00 0.00 0.00 89 1013.0
20260507031935 7 0.0 0.0 0.00 0.00 0.00 89 1013.0
20260507031434 7 0.0 0.0 0.00 0.00 0.00 88 1013.1
20260507030933 7 0.0 0.0 0.00 0.00 0.00 88 1013.1
20260507030432 7 0.0 0.0 0.00 0.00 0.00 88 1013.0
20260507025932 7 0.0 0.0 0.00 0.00 0.00 88 1013.0
20260507025430 7 0.0 0.0 0.00 0.00 0.00 88 1013.0
20260507024929 7 0.0 0.0 0.00 0.00 0.00 88 1013.0
20260507024429 7 0.0 0.0 0.00 0.00 0.00 88 1013.0
20260507023927 7 0.0 0.0 0.00 0.00 0.00 88 1013.0
20260507023447 7 0.0 0.0 0.00 0.00 0.00 88 1013.0
20260507022925 7 0.0 0.0 0.00 0.00 0.00 88 1013.0
20260507022425 7 0.0 0.0 0.00 0.00 0.00 88 1012.9
20260507022003 7 0.0 0.0 0.00 0.00 0.00 88 1012.9
20260507021443 7 0.0 0.0 0.00 0.00 0.00 87 1012.8
20260507020921 7 0.0 0.0 0.00 0.00 0.00 87 1012.8
20260507020440 7 0.0 0.0 0.00 0.00 0.00 87 1012.7
20260507015920 7 0.0 0.0 0.00 0.00 0.00 87 1012.7
20260507015418 7 0.0 0.0 0.00 0.00 0.00 87 1012.7
20260507014918 7 0.0 0.0 0.00 0.00 0.00 87 1012.7
20260507014416 7 0.0 0.0 0.00 0.00 0.00 87 1012.7
20260507013915 7 0.0 0.0 0.00 0.00 0.00 87 1012.7
20260507013415 7 0.0 0.0 0.00 0.00 0.00 87 1012.6
20260507012913 7 0.0 0.0 0.00 0.00 0.00 87 1012.6
20260507012413 7 0.0 0.0 0.00 0.00 0.00 87 1012.5
20260507011932 7 0.0 0.0 0.00 0.00 0.00 87 1012.5
20260507011431 8 0.0 0.0 0.00 0.00 0.00 87 1012.5
20260507010910 8 0.0 0.0 0.00 0.00 0.00 87 1012.5
20260507010409 8 0.0 0.0 0.00 0.00 0.00 87 1012.6
20260507005907 8 0.0 0.0 0.00 0.00 0.00 87 1012.6
20260507005406 8 0.0 0.0 0.00 0.00 0.00 87 1012.6
20260507004906 8 0.0 0.0 0.00 0.00 0.00 87 1012.6
20260507004424 8 0.0 0.0 0.00 0.00 0.00 87 1012.6
20260507003904 8 0.0 0.0 0.00 0.00 0.00 87 1012.6
20260507003402 8 0.0 0.0 0.00 0.00 0.00 87 1012.6
20260507002902 8 0.0 0.0 0.00 0.00 0.00 87 1012.6
20260507002400 8 0.0 0.0 0.00 0.00 0.00 86 1012.6
20260507001900 8 0.0 0.0 0.00 0.00 0.00 86 1012.6
20260507001358 8 0.0 0.0 0.00 0.00 0.00 87 1012.6
20260507000858 8 0.0 0.0 0.00 0.00 0.00 87 1012.6
20260507000357 8 0.0 0.0 0.00 0.00 0.00 87 1012.5
20260506235855 8 0.0 0.0 0.00 0.00 0.00 87 1012.5
20260506235354 8 0.0 0.0 0.00 0.00 0.00 87 1012.4
20260506234853 8 0.0 0.0 0.00 0.00 0.00 87 1012.4
20260506234413 8 0.0 0.0 0.00 0.00 0.00 87 1012.4
20260506233851 8 0.0 0.0 0.00 0.00 0.00 87 1012.4
20260506233350 8 0.0 0.0 0.00 0.00 0.00 87 1012.3
20260506232850 8 0.0 0.0 0.00 0.00 0.00 87 1012.3
20260506232348 8 0.0 0.0 0.00 0.00 0.00 87 1012.2
20260506231847 8 0.0 0.0 0.00 0.00 0.00 87 1012.2
20260506231346 8 0.0 0.0 0.00 0.00 0.00 87 1012.2
20260506230846 8 0.0 0.0 0.00 0.00 0.00 87 1012.2
20260506230345 9 0.0 0.0 0.00 0.00 0.00 87 1012.2
20260506225844 9 0.0 0.0 0.00 0.00 0.00 87 1012.2
20260506225343 9 0.0 0.0 0.00 0.00 0.00 86 1012.1
20260506224842 9 0.0 0.0 0.00 0.00 0.00 86 1012.1
20260506224401 9 0.0 0.0 0.00 0.00 0.00 86 1012.0
20260506223840 9 0.0 0.0 0.00 0.00 0.00 86 1012.0
20260506223339 9 0.0 0.0 0.00 0.00 0.00 86 1012.1
20260506222918 9 0.0 0.0 0.00 0.00 0.00 86 1012.1
20260506222336 9 0.0 0.0 0.00 0.00 0.00 86 1012.0
20260506221836 9 0.0 0.0 0.00 0.00 0.00 86 1012.0
20260506221334 10 0.0 0.0 0.00 0.00 0.00 86 1012.0
20260506220834 10 0.0 0.0 0.00 0.00 0.00 86 1012.0
20260506220333 10 0.0 0.0 0.00 0.00 0.00 85 1011.9
20260506215831 10 0.0 0.0 0.00 0.00 0.00 85 1011.9
20260506215331 10 0.0 0.0 0.00 0.00 0.00 85 1011.9
20260506214850 10 0.0 0.0 0.00 0.00 0.00 85 1011.9
20260506214329 10 0.0 0.0 0.00 0.00 0.00 85 1011.9
20260506213827 10 0.0 0.0 0.00 0.00 0.00 85 1011.9
20260506213327 10 0.0 0.0 0.00 0.00 0.00 85 1011.8
20260506212925 10 0.0 0.0 0.00 0.00 0.00 85 1011.8
20260506212325 10 0.0 0.0 0.00 0.00 0.00 84 1011.7
20260506211824 10 0.0 0.0 0.00 0.00 0.00 84 1011.7
20260506211322 10 0.0 0.0 0.00 0.00 0.00 84 1011.6
20260506210821 10 0.0 0.0 0.00 0.00 0.00 84 1011.6
20260506210320 11 0.0 0.0 0.00 0.00 0.00 83 1011.6
20260506205919 11 0.0 0.0 0.00 0.00 0.00 83 1011.6
20260506205319 11 0.0 0.0 0.00 0.00 0.00 83 1011.5
20260506204817 11 0.0 0.0 0.00 0.00 0.00 83 1011.5
20260506204317 11 0.0 0.0 0.00 0.00 0.00 83 1011.4
20260506203816 11 0.0 0.0 0.00 0.00 0.00 83 1011.4
20260506203315 11 0.0 0.0 0.00 0.00 0.00 82 1011.3
20260506202813 11 0.0 0.0 0.00 0.00 0.00 82 1011.3
20260506202312 11 0.0 0.0 0.00 0.00 0.00 82 1011.2
20260506201812 11 0.0 0.0 0.00 0.00 0.00 82 1011.2
20260506201310 11 0.0 0.0 0.00 0.00 0.00 81 1011.2
20260506200810 11 0.0 0.0 0.00 0.00 0.00 81 1011.2
20260506200308 11 0.0 0.0 0.00 0.00 0.00 80 1011.1
20260506195808 11 0.0 0.0 0.00 0.00 0.00 80 1011.1
20260506195327 11 0.0 0.0 0.00 0.00 0.00 79 1011.0
20260506194805 11 0.0 0.0 0.00 0.00 0.00 79 1011.0
20260506194304 12 0.0 0.0 0.00 0.00 0.00 79 1010.9
20260506193804 12 0.0 0.0 0.00 0.00 0.00 79 1010.9
20260506193303 12 0.0 0.0 0.00 0.00 0.00 78 1010.8
20260506192822 12 0.0 0.0 0.00 0.00 0.00 78 1010.8
20260506192305 12 0.0 0.0 0.00 0.00 0.00 77 1010.7
20260506191800 12 0.0 0.0 0.00 0.00 0.00 77 1010.7
20260506191258 12 0.0 0.0 0.00 0.00 0.00 77 1010.6
20260506190758 12 0.0 0.0 0.00 0.00 0.00 77 1010.6
20260506190256 13 0.0 0.0 0.00 0.00 0.00 76 1010.5
20260506185816 13 0.0 0.0 0.00 0.00 0.00 76 1010.5
20260506185254 13 0.0 0.0 0.00 0.00 0.00 75 1010.4
20260506184754 13 0.0 0.0 0.00 0.00 0.00 75 1010.4
20260506184332 13 0.0 0.0 0.00 0.00 0.00 75 1010.4
20260506183752 13 0.0 0.0 0.00 0.00 0.00 75 1010.4
20260506183250 13 0.0 0.0 0.00 0.00 0.00 75 1010.3
20260506182750 13 0.0 0.0 0.00 0.00 0.00 75 1010.3
20260506182248 13 0.0 0.0 0.00 0.00 0.00 75 1010.2
20260506181748 13 0.0 0.0 0.00 0.00 0.00 75 1010.2
20260506181246 14 0.0 0.0 0.00 0.00 0.00 74 1010.0
20260506180746 14 0.0 0.0 0.00 0.00 0.00 74 1010.0
20260506180244 14 0.0 0.0 0.00 0.00 0.00 74 1009.9
20260506175744 14 0.0 0.0 0.00 0.00 0.00 74 1009.9
20260506175242 14 0.0 0.0 0.00 0.00 0.00 74 1009.7
20260506174742 14 0.0 0.0 0.00 0.00 0.00 74 1009.7
20260506174240 14 0.0 0.0 0.00 0.00 0.00 74 1009.6
20260506173739 14 0.0 0.0 0.00 0.00 0.00 74 1009.6
20260506173259 14 0.0 0.0 0.00 0.00 0.00 74 1009.5
20260506172737 14 0.0 0.0 0.00 0.00 0.00 74 1009.5
20260506172237 14 0.0 0.0 0.00 0.00 0.00 72 1009.4
20260506171735 14 0.0 0.0 0.00 0.00 0.00 72 1009.4
20260506171235 14 0.0 0.0 0.00 0.00 0.00 73 1009.4
20260506170734 14 0.0 0.0 0.00 0.00 0.00 73 1009.4
20260506170232 15 0.0 0.0 0.00 0.00 0.00 73 1009.3
20260506165731 15 0.0 0.0 0.00 0.00 0.00 73 1009.3
20260506165330 15 0.0 0.0 0.00 0.00 0.00 73 1009.3
20260506164730 15 0.0 0.0 0.00 0.00 0.00 73 1009.3
20260506164228 15 0.0 0.0 0.00 0.00 0.00 73 1009.2
20260506163748 15 0.0 0.0 0.00 0.00 0.00 73 1009.2
20260506163247 15 0.0 0.0 0.00 0.00 0.00 73 1009.2
20260506162725 15 0.0 0.0 0.00 0.00 0.00 73 1009.2
20260506162225 16 0.0 0.0 0.00 0.00 0.00 73 1009.1
20260506161723 16 0.0 0.0 0.00 0.00 0.00 73 1009.1
20260506161223 16 0.0 0.0 0.00 0.00 0.00 75 1009.1
20260506160721 16 0.0 0.0 0.00 0.00 0.00 75 1009.1
20260506160220 16 0.0 0.0 0.00 0.00 0.00 75 1009.0
20260506155720 16 0.0 0.0 0.00 0.00 0.00 75 1009.0
20260506155218 15 0.0 0.0 0.00 0.00 0.00 75 1009.0
20260506154718 15 0.0 0.0 0.00 0.00 0.00 75 1009.0
20260506154216 15 0.0 0.0 0.00 0.00 0.00 78 1009.1
20260506153716 15 0.0 0.0 0.00 0.00 0.00 78 1009.1
20260506153215 15 0.0 0.0 0.00 0.00 0.00 76 1009.1
20260506152713 15 0.0 0.0 0.00 0.00 0.00 76 1009.1
20260506152213 15 0.0 0.0 0.00 0.00 0.00 77 1009.0
20260506151731 15 0.0 0.0 0.00 0.00 0.00 77 1009.0
20260506151211 14 0.0 0.0 0.00 0.00 0.00 77 1009.0
20260506150709 14 0.0 0.0 0.00 0.00 0.00 77 1009.0
20260506150209 14 0.0 0.0 0.00 0.00 0.00 75 1009.1
20260506145708 14 0.0 0.0 0.00 0.00 0.00 75 1009.1
20260506145227 14 0.0 0.0 0.00 0.00 0.00 78 1009.1
20260506144705 14 0.0 0.0 0.00 0.00 0.00 78 1009.1
20260506144225 14 0.0 0.0 0.00 0.00 0.00 79 1009.0
20260506143704 14 0.0 0.0 0.00 0.00 0.00 79 1009.0
20260506143204 14 0.0 0.0 0.00 0.00 0.00 79 1009.0
20260506142721 14 0.0 0.0 0.00 0.00 0.00 79 1009.0
20260506142201 14 0.0 0.0 0.00 0.00 0.00 79 1009.1
20260506141720 14 0.0 0.0 0.00 0.00 0.00 79 1009.1
20260506141158 14 0.0 0.0 0.00 0.00 0.00 80 1009.1
20260506140718 14 0.0 0.0 0.00 0.00 0.00 80 1009.1
20260506140156 14 0.0 0.0 0.00 0.00 0.00 80 1009.1
20260506135716 14 0.0 0.0 0.00 0.00 0.00 80 1009.1
20260506135214 14 0.0 0.0 0.00 0.00 0.00 79 1009.2
20260506134654 14 0.0 0.0 0.00 0.00 0.00 79 1009.2
20260506134152 14 0.0 0.0 0.00 0.00 0.00 79 1009.2
20260506133712 14 0.0 0.0 0.00 0.00 0.00 80 1009.1
20260506133150 14 0.0 0.0 0.00 0.00 0.00 80 1009.1
20260506132650 14 0.0 0.0 0.00 0.00 0.00 81 1009.1
20260506132148 14 0.0 0.0 0.00 0.00 0.00 81 1009.1
20260506131647 14 0.0 0.0 0.00 0.00 0.00 80 1009.1
20260506131147 14 0.0 0.0 0.00 0.00 0.00 80 1009.1
20260506130645 14 0.0 0.0 0.00 0.00 0.00 81 1009.0
20260506130205 14 0.0 0.0 0.00 0.00 0.00 81 1009.0
20260506125643 13 0.0 0.0 0.00 0.00 0.00 81 1008.9
20260506125203 13 0.0 0.0 0.00 0.00 0.00 81 1008.9
20260506124641 13 0.0 0.0 0.00 0.00 0.00 81 1008.9
20260506124201 13 0.0 0.0 0.00 0.00 0.00 81 1008.9